Westminster, MD

8:44 PM EST on February 20, 2018 (GMT -0500)
Carroll County Regional-Poage

Weather History for KDMW - September, 2012

Change the Weather History Date:

Wednesday, September 12, 2012

  Actual Average (KTHV) Record (KTHV)
Temperature  
Mean Temperature 66 °F -  
Max Temperature 80 °F 0 °F 89 °F (2005)
Min Temperature 51 °F - 46 °F (1999)
Growing Degree Days 16 (Base 50)    
Moisture  
Dew Point 49 °F    
Average Humidity 58    
Maximum Humidity 82    
Minimum Humidity 30    
Precipitation  
Precipitation 0.00 in - - ()
Sea Level Pressure  
Sea Level Pressure 30.35 in    
Wind  
Wind Speed 2 mph (South)    
Max Wind Speed 8 mph    
Max Gust Speed -    
Visibility 10 miles    
Events      
Averages and records for this station are not official NWS values.
T = Trace of Precipitation, MM = Missing Value Source: NWS Daily Summary

Daily Weather History Graph

Daily Weather History Graph

Search for Another Location

Airport or City:

Trip Planner

Search our weather history database for the weather conditions in past years. The results will help you decide how hot, cold, wet, or windy it might be!

Date:

Astronomy

Sep. 12, 2012 Rise Set
Actual Time 6:46 AM EDT 7:20 PM EDT
Civil Twilight 6:19 AM EDT 7:47 PM EDT
Nautical Twilight 5:47 AM EDT 8:19 PM EDT
Astronomical Twilight 5:14 AM EDT 8:52 PM EDT
Moon 3:02 AM EDT (9/12) 5:06 PM EDT (9/12)
Length of Visible Light 13h 28m
Length of Day
12h 33m
Waning Crescent, 14% of the Moon is Illuminated
Sep 12
Waning Crescent
Sep 15
New
Sep 22
First Quarter
Sep 29
Full
Oct 8
Last Quarter

Hourly Weather History & Observations

Time (EDT) Temp. Dew Point Humidity Pressure Visibility Wind Dir Wind Speed Gust Speed Precip Events Conditions
1:04 AM 55.4 °F 48.2 °F 77% 30.32 in 10.0 mi Calm Calm - N/A   Clear
1:25 AM 55.4 °F 46.4 °F 72% 30.32 in 10.0 mi Calm Calm - N/A   Clear
1:46 AM 55.4 °F 46.4 °F 72% 30.32 in 10.0 mi Calm Calm - N/A   Clear
2:10 AM 55.4 °F 46.4 °F 72% 30.32 in 10.0 mi Calm Calm - N/A   Clear
2:31 AM 55.4 °F 46.4 °F 72% 30.33 in 10.0 mi Calm Calm - N/A   Clear
2:52 AM 53.6 °F 46.4 °F 77% 30.33 in 10.0 mi Calm Calm - N/A   Clear
3:13 AM 53.6 °F 46.4 °F 77% 30.32 in 10.0 mi Calm Calm - N/A   Clear
3:34 AM 51.8 °F 46.4 °F 82% 30.33 in 10.0 mi Calm Calm - N/A   Clear
3:55 AM 53.6 °F 46.4 °F 77% 30.32 in 10.0 mi Calm Calm - N/A   Clear
4:16 AM 51.8 °F 46.4 °F 82% 30.32 in 10.0 mi Calm Calm - N/A   Clear
4:37 AM 53.6 °F 46.4 °F 77% 30.33 in 10.0 mi Calm Calm - N/A   Clear
4:58 AM 51.8 °F 46.4 °F 82% 30.33 in 10.0 mi Calm Calm - N/A   Clear
5:22 AM 51.8 °F 46.4 °F 82% 30.33 in 10.0 mi Calm Calm - N/A   Clear
5:43 AM 51.8 °F 46.4 °F 82% 30.33 in 10.0 mi Calm Calm - N/A   Clear
6:04 AM 51.8 °F 46.4 °F 82% 30.34 in 10.0 mi Calm Calm - N/A   Clear
6:25 AM 51.8 °F 46.4 °F 82% 30.35 in 10.0 mi Calm Calm - N/A   Clear
7:07 AM 51.8 °F 46.4 °F 82% 30.36 in 10.0 mi Calm Calm - N/A   Clear
7:28 AM 53.6 °F 46.4 °F 77% 30.36 in 10.0 mi Calm Calm - N/A   Clear
7:49 AM 55.4 °F 46.4 °F 72% 30.36 in 10.0 mi Calm Calm - N/A   Clear
8:31 AM 59.0 °F 48.2 °F 67% 30.36 in 10.0 mi Calm Calm - N/A   Clear
8:52 AM 62.6 °F 50.0 °F 63% 30.37 in 10.0 mi Calm Calm - N/A   Clear
9:16 AM 64.4 °F 50.0 °F 59% 30.37 in 10.0 mi Calm Calm - N/A   Clear
9:37 AM 64.4 °F 50.0 °F 59% 30.38 in 10.0 mi WSW 3.5 mph - N/A   Clear
9:58 AM 66.2 °F 50.0 °F 56% 30.39 in 10.0 mi WSW 5.8 mph - N/A   Clear
10:19 AM 66.2 °F 50.0 °F 56% 30.39 in 10.0 mi SW 5.8 mph - N/A   Clear
10:40 AM 68.0 °F 51.8 °F 56% 30.39 in 10.0 mi WSW 4.6 mph - N/A   Clear
11:01 AM 69.8 °F 48.2 °F 46% 30.39 in 10.0 mi SSW 4.6 mph - N/A   Clear
11:22 AM 71.6 °F 50.0 °F 46% 30.39 in 10.0 mi South 5.8 mph - N/A   Clear
11:43 AM 71.6 °F 50.0 °F 46% 30.39 in 10.0 mi South 5.8 mph - N/A   Clear
12:04 PM 71.6 °F 50.0 °F 46% 30.38 in 10.0 mi SW 3.5 mph - N/A   Clear
12:25 PM 71.6 °F 50.0 °F 46% 30.38 in 10.0 mi Calm Calm - N/A   Clear
12:46 PM - 50.0 °F N/A% 30.37 in 10.0 mi WSW 3.5 mph - N/A   Clear
1:07 PM 73.4 °F 51.8 °F 47% 30.37 in 10.0 mi WSW 6.9 mph - N/A   Clear
1:31 PM 75.2 °F 50.0 °F 41% 30.37 in 10.0 mi SSE 6.9 mph - N/A   Clear
1:52 PM 77.0 °F 48.2 °F 36% 30.36 in 10.0 mi Calm Calm - N/A   Clear
2:13 PM 75.2 °F 48.2 °F 38% 30.36 in 10.0 mi Calm Calm - N/A   Clear
2:34 PM 78.8 °F 48.2 °F 34% 30.35 in 10.0 mi SSW 5.8 mph - N/A   Clear
2:55 PM 78.8 °F 46.4 °F 32% 30.34 in 10.0 mi North - - N/A   Clear
3:13 PM 78.8 °F 48.2 °F 34% 30.34 in 10.0 mi Calm Calm - N/A   Clear
3:37 PM 80.6 °F 46.4 °F 30% 30.33 in 10.0 mi SW 4.6 mph - N/A   Clear
3:58 PM 80.6 °F 48.2 °F 32% 30.33 in 10.0 mi Calm Calm - N/A   Clear
4:19 PM 80.6 °F 48.2 °F 32% 30.33 in 10.0 mi SSE 6.9 mph - N/A   Clear
5:01 PM 80.6 °F 46.4 °F 30% 30.33 in 10.0 mi SE 5.8 mph - N/A   Clear
5:22 PM 80.6 °F 46.4 °F 30% 30.33 in 10.0 mi SE 8.1 mph - N/A   Clear
5:46 PM 78.8 °F 46.4 °F 32% 30.33 in 10.0 mi SSE 6.9 mph - N/A   Clear
6:07 PM 78.8 °F 46.4 °F 32% 30.33 in 10.0 mi SE 6.9 mph - N/A   Clear
6:49 PM 75.2 °F 51.8 °F 44% 30.33 in 10.0 mi SE 5.8 mph - N/A   Clear
7:10 PM 73.4 °F 51.8 °F 47% 30.34 in 10.0 mi SE 6.9 mph - N/A   Clear
7:31 PM 71.6 °F 53.6 °F 53% 30.34 in 10.0 mi SE 4.6 mph - N/A   Clear
8:34 PM 68.0 °F 51.8 °F 56% 30.36 in 10.0 mi SE 6.9 mph - N/A   Clear
8:55 PM 68.0 °F 51.8 °F 56% 30.36 in 10.0 mi SE 5.8 mph - N/A   Clear
9:16 PM 66.2 °F 50.0 °F 56% 30.36 in 10.0 mi SE 5.8 mph - N/A   Clear
9:37 PM 66.2 °F 50.0 °F 56% 30.37 in 10.0 mi SE 3.5 mph - N/A   Clear
10:01 PM 66.2 °F 50.0 °F 56% 30.37 in 10.0 mi SSE 3.5 mph - N/A   Clear
10:22 PM 66.2 °F 50.0 °F 56% 30.37 in 10.0 mi SSE 4.6 mph - N/A   Clear
10:43 PM 66.2 °F 51.8 °F 60% 30.37 in 10.0 mi South 4.6 mph - N/A   Clear
11:04 PM 64.4 °F 51.8 °F 64% 30.37 in 10.0 mi SSE 3.5 mph - N/A   Clear
11:25 PM 64.4 °F 51.8 °F 64% 30.37 in 10.0 mi SSE 3.5 mph - N/A   Clear
11:46 PM 62.6 °F 51.8 °F 68% 30.37 in 10.0 mi SSE 3.5 mph - N/A   Clear